Regional Weather Roundup
Issued by NWS

Home | Current Version | Previous Version | Graphics & Text | Print | Product List | Glossary On
Versions: 1 2 3 4 5 6 7 8 9 10 11 12 13 14 15 16 17 18 19 20 21 22 23 24 25 26 27 28 29 30 31 32 33 34 35 36 37 38 39 40 41 42 43 44 45 46 47 48 49 50
000
ASUS45 KBOI 210610
RWRID
WEATHER ROUNDUP FOR IDAHO
NATIONAL WEATHER SERVICE BOISE ID
1200 AM MDT SUN SEP 21 2014

NOTE: "FAIR" INDICATES FEW OR NO CLOUDS BELOW 12000 FEET
WITH NO SIGNIFICANT WEATHER AND/OR OBSTRUCTIONS TO VISIBILITY

IDZ012-014-210700-
SOUTHWEST IDAHO


CITY           SKY/WX    TMP DP  RH WIND       PRES   REMARKS
BOISE          CLEAR     67  45  45 SE3       30.01S
CALDWELL       CLEAR     61  46  59 CALM      30.01F
MOUNTAIN HOME  PTCLDY    63  42  45 CALM      30.02S
$$

IDZ016-017-210700-
SOUTHCENTRAL IDAHO


CITY           SKY/WX    TMP DP  RH WIND       PRES   REMARKS
BURLEY         PTCLDY    52  44  74 CALM      30.09S
JEROME         PTCLDY    61  41  47 E9        30.10R
TWIN FALLS     PTCLDY    56  40  55 S5        30.10R
$$

IDZ019>023-210700-
SOUTHEAST IDAHO


CITY           SKY/WX    TMP DP  RH WIND       PRES   REMARKS
IDAHO FALLS    CLEAR     54  45  71 N6        30.18R
POCATELLO      CLEAR     53  47  79 N3        30.14R
REXBURG        CLEAR     52  43  71 NE7       30.19R
$$

IDZ006-010-011-018-031-032-210700-
CENTRAL IDAHO MOUNTAINS


CITY           SKY/WX    TMP DP  RH WIND       PRES   REMARKS
MCCALL         CLEAR     57  42  57 CALM      30.15S
HAILEY         CLEAR     57  41  54 NW9       30.22S
STANLEY          N/A     48  35  60 CALM      30.28S
SALMON         CLEAR     52  39  62 CALM      30.15R
CHALLIS        CLEAR     58  38  47 CALM      30.19R
$$

IDZ002-004-006-007-026-210700-
NORTHERN IDAHO


CITY           SKY/WX    TMP DP  RH WIND       PRES   REMARKS
LEWISTON       CLEAR     69  39  33 S6        29.98R
LOWELL           N/A     58  54  86 N3        30.05R
COEUR D`ALENE  CLEAR     64  43  45 N12       30.06S
MULLAN PASS    CLEAR     58  36  43 SE9       30.27S
$$



USA.gov is the U.S. government's official web portal to all federal, state and local government web resources and services.